| time (UTC) | temp C | wind direction | speed KPH | gust KPH | rain 1hr cm | rain 24hr cm | rain mn cm | humidity % | barometer mb |
| 20260503173742 | 11 | 240 | 4.8 | 6.4 | 0.00 | 0.00 | 0.00 | 47 | 1014.0 |
| 20260503173238 | 10 | 303 | 3.2 | 9.7 | 0.00 | 0.00 | 0.00 | 46 | 1013.7 |
| 20260503172735 | 10 | 160 | 3.2 | 22.5 | 0.00 | 0.00 | 0.00 | 51 | 1013.7 |
| 20260503172232 | 10 | 263 | 1.6 | 11.3 | 0.00 | 0.00 | 0.00 | 49 | 1014.1 |
| 20260503171729 | 10 | 319 | 12.9 | 17.7 | 0.00 | 0.00 | 0.00 | 47 | 1013.9 |
| 20260503171226 | 9 | 166 | 1.6 | 11.3 | 0.00 | 0.00 | 0.00 | 52 | 1014.0 |
| 20260503170723 | 9 | 187 | 8.0 | 20.9 | 0.00 | 0.00 | 0.00 | 53 | 1014.1 |
| 20260503170220 | 10 | 255 | 19.3 | 25.7 | 0.00 | 0.00 | 0.00 | 48 | 1013.9 |
| 20260503160141 | 8 | 150 | 9.7 | 14.5 | 0.00 | 0.00 | 0.00 | 55 | 1014.6 |
| 20260503150611 | 7 | 330 | 4.8 | 12.9 | 0.00 | 0.00 | 0.00 | 57 | 1015.0 |
| 20260503150108 | 7 | 302 | 8.0 | 14.5 | 0.00 | 0.00 | 0.00 | 58 | 1014.8 |
| 20260503131001 | 4 | 303 | 9.7 | 12.9 | 0.00 | 0.00 | 0.00 | 78 | 1014.8 |
| 20260503130459 | 5 | 166 | 8.0 | 14.5 | 0.00 | 0.00 | 0.00 | 78 | 1014.9 |
| 20260503110343 | 0 | 283 | 3.2 | 4.8 | 0.00 | 0.00 | 0.00 | 95 | 1013.5 |
| 20260503090234 | 0 | 298 | 0.0 | 0.0 | 0.00 | 0.00 | 0.00 | 96 | 1012.6 |
| 20260503081202 | 0 | 311 | 3.2 | 3.2 | 0.00 | 0.00 | 0.00 | 95 | 1012.5 |
| 20260503080658 | 0 | 318 | 1.6 | 3.2 | 0.00 | 0.00 | 0.00 | 95 | 1012.3 |
| 20260503080155 | 0 | 300 | 1.6 | 1.6 | 0.00 | 0.00 | 0.00 | 95 | 1012.5 |
| 20260503072632 | 1 | 308 | 3.2 | 9.7 | 0.00 | 0.00 | 0.00 | 90 | 1012.3 |
| 20260503072129 | 1 | 308 | 3.2 | 3.2 | 0.00 | 0.00 | 0.00 | 91 | 1012.0 |
| 20260503071626 | 1 | 303 | 4.8 | 4.8 | 0.00 | 0.00 | 0.00 | 90 | 1011.8 |
| 20260503071122 | 1 | 292 | 6.4 | 9.7 | 0.00 | 0.00 | 0.00 | 90 | 1012.0 |
| 20260503070619 | 1 | 303 | 4.8 | 6.4 | 0.00 | 0.00 | 0.00 | 90 | 1012.1 |
| 20260503070117 | 2 | 293 | 1.6 | 4.8 | 0.00 | 0.00 | 0.00 | 90 | 1012.1 |
| 20260503055037 | 1 | 295 | 0.0 | 1.6 | 0.00 | 0.00 | 0.00 | 90 | 1011.8 |
| 20260503054533 | 1 | 293 | 0.0 | 1.6 | 0.00 | 0.00 | 0.00 | 90 | 1011.8 |
| 20260503054031 | 2 | 293 | 1.6 | 3.2 | 0.00 | 0.00 | 0.00 | 90 | 1012.0 |
| 20260503053529 | 2 | 171 | 1.6 | 1.6 | 0.00 | 0.00 | 0.00 | 89 | 1011.7 |
| 20260503053026 | 2 | 297 | 1.6 | 1.6 | 0.00 | 0.00 | 0.00 | 88 | 1011.6 |
| 20260503052523 | 2 | 301 | 0.0 | 1.6 | 0.00 | 0.00 | 0.00 | 89 | 1011.7 |
| 20260503052019 | 2 | 300 | 1.6 | 3.2 | 0.00 | 0.00 | 0.00 | 88 | 1011.8 |
| 20260503051515 | 2 | 301 | 0.0 | 1.6 | 0.00 | 0.00 | 0.00 | 89 | 1011.8 |
| 20260503051013 | 2 | 303 | 1.6 | 1.6 | 0.00 | 0.00 | 0.00 | 89 | 1012.0 |
| 20260503050508 | 2 | 306 | 3.2 | 3.2 | 0.00 | 0.00 | 0.00 | 89 | 1011.8 |
| 20260503050006 | 2 | 306 | 1.6 | 3.2 | 0.00 | 0.00 | 0.00 | 89 | 1012.1 |
| 20260503045503 | 2 | 295 | 1.6 | 3.2 | 0.00 | 0.00 | 0.00 | 89 | 1012.2 |
| 20260503045000 | 2 | 255 | 1.6 | 1.6 | 0.00 | 0.00 | 0.00 | 89 | 1012.1 |
| 20260503044457 | 2 | 293 | 1.6 | 1.6 | 0.00 | 0.00 | 0.00 | 88 | 1012.0 |
| 20260503043954 | 2 | 299 | 0.0 | 3.2 | 0.00 | 0.00 | 0.00 | 88 | 1012.1 |
| 20260503043450 | 2 | 296 | 1.6 | 3.2 | 0.00 | 0.00 | 0.00 | 87 | 1012.1 |
| 20260503042947 | 2 | 306 | 3.2 | 3.2 | 0.00 | 0.00 | 0.00 | 88 | 1011.8 |
| 20260503042444 | 2 | 292 | 1.6 | 3.2 | 0.00 | 0.00 | 0.00 | 88 | 1012.2 |
| 20260503041941 | 2 | 290 | 1.6 | 1.6 | 0.00 | 0.00 | 0.00 | 89 | 1012.2 |
| 20260503041437 | 2 | 289 | 0.0 | 1.6 | 0.00 | 0.00 | 0.00 | 88 | 1012.3 |
| 20260503040935 | 2 | 311 | 0.0 | 1.6 | 0.00 | 0.00 | 0.00 | 88 | 1012.1 |
| 20260503040432 | 2 | 294 | 0.0 | 3.2 | 0.00 | 0.00 | 0.00 | 88 | 1012.2 |
| 20260503035929 | 2 | 258 | 0.0 | 1.6 | 0.00 | 0.00 | 0.00 | 88 | 1012.1 |
| 20260503035425 | 2 | 197 | 0.0 | 0.0 | 0.00 | 0.00 | 0.00 | 87 | 1012.2 |
| 20260503034923 | 2 | 279 | 1.6 | 3.2 | 0.00 | 0.00 | 0.00 | 87 | 1012.1 |
| 20260503034421 | 2 | 287 | 0.0 | 0.0 | 0.00 | 0.00 | 0.00 | 89 | 1012.2 |
| 20260503033917 | 2 | 287 | 0.0 | 0.0 | 0.00 | 0.00 | 0.00 | 90 | 1012.2 |
| 20260503033415 | 2 | 287 | 0.0 | 1.6 | 0.00 | 0.00 | 0.00 | 89 | 1012.2 |
| 20260503032913 | 2 | 153 | 0.0 | 1.6 | 0.00 | 0.00 | 0.00 | 88 | 1012.3 |
| 20260503032411 | 2 | 212 | 0.0 | 1.6 | 0.00 | 0.00 | 0.00 | 86 | 1012.4 |
| 20260503031908 | 2 | 249 | 0.0 | 1.6 | 0.00 | 0.00 | 0.00 | 88 | 1012.0 |
| 20260503031406 | 2 | 250 | 0.0 | 1.6 | 0.00 | 0.00 | 0.00 | 86 | 1012.0 |
| 20260503030902 | 2 | 249 | 0.0 | 1.6 | 0.00 | 0.00 | 0.00 | 90 | 1012.1 |
| 20260503030359 | 2 | 305 | 0.0 | 1.6 | 0.00 | 0.00 | 0.00 | 90 | 1012.4 |
| 20260503025855 | 2 | 325 | 0.0 | 0.0 | 0.00 | 0.00 | 0.00 | 90 | 1012.2 |
| 20260503025353 | 2 | 322 | 1.6 | 1.6 | 0.00 | 0.00 | 0.00 | 88 | 1012.3 |
| 20260503024850 | 2 | 295 | 0.0 | 1.6 | 0.00 | 0.00 | 0.00 | 88 | 1012.1 |
| 20260503024347 | 2 | 288 | 1.6 | 4.8 | 0.00 | 0.00 | 0.00 | 87 | 1012.5 |
| 20260503023844 | 2 | 287 | 0.0 | 3.2 | 0.00 | 0.00 | 0.00 | 87 | 1012.4 |
| 20260503023341 | 2 | 305 | 0.0 | 0.0 | 0.00 | 0.00 | 0.00 | 88 | 1012.4 |
| 20260503022838 | 2 | 310 | 0.0 | 1.6 | 0.00 | 0.00 | 0.00 | 88 | 1012.2 |
| 20260503022337 | 2 | 309 | 0.0 | 0.0 | 0.00 | 0.00 | 0.00 | 88 | 1012.4 |
| 20260503021834 | 2 | 291 | 3.2 | 4.8 | 0.00 | 0.00 | 0.00 | 86 | 1012.3 |
| 20260503021330 | 2 | 291 | 0.0 | 4.8 | 0.00 | 0.00 | 0.00 | 86 | 1012.3 |
| 20260503020828 | 2 | 306 | 0.0 | 1.6 | 0.00 | 0.00 | 0.00 | 87 | 1012.4 |
| 20260503020326 | 3 | 305 | 1.6 | 1.6 | 0.00 | 0.00 | 0.00 | 85 | 1012.4 |
| 20260503015822 | 3 | 312 | 1.6 | 4.8 | 0.00 | 0.00 | 0.00 | 84 | 1012.3 |
| 20260503015319 | 3 | 305 | 3.2 | 4.8 | 0.00 | 0.00 | 0.00 | 84 | 1012.4 |
| 20260503014815 | 3 | 249 | 0.0 | 1.6 | 0.00 | 0.00 | 0.00 | 84 | 1012.3 |
| 20260503014313 | 3 | 256 | 0.0 | 0.0 | 0.00 | 0.00 | 0.00 | 83 | 1012.3 |
| 20260503013810 | 3 | 307 | 1.6 | 1.6 | 0.00 | 0.00 | 0.00 | 83 | 1012.2 |
| 20260503013307 | 3 | 304 | 0.0 | 1.6 | 0.00 | 0.00 | 0.00 | 83 | 1012.2 |
| 20260503012804 | 3 | 309 | 0.0 | 3.2 | 0.00 | 0.00 | 0.00 | 81 | 1012.5 |
| 20260503012301 | 3 | 298 | 1.6 | 4.8 | 0.00 | 0.00 | 0.00 | 81 | 1012.3 |
| 20260503011758 | 3 | 276 | 0.0 | 1.6 | 0.00 | 0.00 | 0.00 | 81 | 1012.0 |
| 20260503011255 | 3 | 316 | 4.8 | 4.8 | 0.00 | 0.00 | 0.00 | 79 | 1011.8 |
| 20260503010751 | 3 | 311 | 3.2 | 12.9 | 0.00 | 0.00 | 0.00 | 80 | 1012.2 |
| 20260503010248 | 3 | 309 | 6.4 | 6.4 | 0.00 | 0.00 | 0.00 | 79 | 1011.8 |
| 20260503005746 | 3 | 49 | 3.2 | 4.8 | 0.00 | 0.00 | 0.00 | 79 | 1011.8 |
| 20260503005243 | 3 | 334 | 1.6 | 9.7 | 0.00 | 0.00 | 0.00 | 79 | 1012.0 |
| 20260503004739 | 3 | 7 | 1.6 | 4.8 | 0.00 | 0.00 | 0.00 | 78 | 1011.6 |
| 20260503004237 | 3 | 44 | 4.8 | 11.3 | 0.00 | 0.00 | 0.00 | 78 | 1011.7 |
| 20260503003734 | 3 | 44 | 3.2 | 4.8 | 0.00 | 0.00 | 0.00 | 78 | 1011.6 |
| 20260503003231 | 4 | 343 | 6.4 | 9.7 | 0.00 | 0.00 | 0.00 | 78 | 1011.4 |
| 20260503002728 | 4 | 313 | 1.6 | 4.8 | 0.00 | 0.00 | 0.00 | 78 | 1011.6 |
| 20260503002225 | 4 | 337 | 8.0 | 9.7 | 0.00 | 0.00 | 0.00 | 78 | 1011.5 |
| 20260503001720 | 4 | 313 | 4.8 | 4.8 | 0.00 | 0.00 | 0.00 | 77 | 1011.6 |
| 20260503001217 | 4 | 14 | 6.4 | 6.4 | 0.00 | 0.00 | 0.00 | 77 | 1011.3 |
| 20260503000715 | 4 | 328 | 3.2 | 12.9 | 0.00 | 0.00 | 0.00 | 78 | 1011.5 |
| 20260503000212 | 5 | 70 | 3.2 | 3.2 | 0.00 | 0.00 | 0.00 | 78 | 1011.3 |
| 20260502235709 | 5 | 300 | 12.9 | 17.7 | 0.00 | 0.00 | 0.00 | 77 | 1011.1 |
| 20260502235207 | 5 | 357 | 6.4 | 14.5 | 0.00 | 0.00 | 0.00 | 77 | 1011.1 |
| 20260502234703 | 5 | 299 | 3.2 | 16.1 | 0.00 | 0.00 | 0.00 | 76 | 1011.1 |
| 20260502234200 | 5 | 303 | 11.3 | 24.1 | 0.00 | 0.00 | 0.00 | 75 | 1011.3 |
| 20260502233656 | 5 | 31 | 4.8 | 4.8 | 0.00 | 0.00 | 0.00 | 72 | 1010.8 |
| 20260502233153 | 5 | 290 | 8.0 | 12.9 | 0.00 | 0.00 | 0.00 | 73 | 1010.9 |
| 20260502232644 | 5 | 64 | 4.8 | 6.4 | 0.00 | 0.00 | 0.00 | 72 | 1010.8 |
| 20260502232141 | 5 | 358 | 6.4 | 9.7 | 0.00 | 0.00 | 0.00 | 71 | 1010.8 |
| 20260502231638 | 6 | 76 | 4.8 | 4.8 | 0.00 | 0.00 | 0.00 | 69 | 1010.8 |
| 20260502231135 | 6 | 34 | 4.8 | 14.5 | 0.00 | 0.00 | 0.00 | 70 | 1010.5 |
| 20260502230633 | 6 | 42 | 11.3 | 16.1 | 0.00 | 0.00 | 0.00 | 66 | 1010.6 |
| 20260502230131 | 6 | 314 | 8.0 | 11.3 | 0.00 | 0.00 | 0.00 | 66 | 1010.3 |
| 20260502225626 | 6 | 297 | 16.1 | 22.5 | 0.00 | 0.00 | 0.00 | 62 | 1010.4 |
| 20260502225124 | 7 | 284 | 4.8 | 12.9 | 0.00 | 0.00 | 0.00 | 61 | 1010.3 |
| 20260502224620 | 7 | 7 | 1.6 | 9.7 | 0.00 | 0.00 | 0.00 | 60 | 1010.6 |
| 20260502224117 | 7 | 335 | 6.4 | 11.3 | 0.00 | 0.00 | 0.00 | 58 | 1010.3 |
| 20260502223615 | 7 | 310 | 4.8 | 9.7 | 0.00 | 0.00 | 0.00 | 57 | 1010.4 |
| 20260502223113 | 7 | 358 | 1.6 | 6.4 | 0.00 | 0.00 | 0.00 | 56 | 1010.3 |
| 20260502222610 | 7 | 316 | 4.8 | 9.7 | 0.00 | 0.00 | 0.00 | 57 | 1010.4 |
| 20260502222106 | 7 | 312 | 8.0 | 11.3 | 0.00 | 0.00 | 0.00 | 56 | 1010.2 |
| 20260502221602 | 7 | 301 | 9.7 | 22.5 | 0.00 | 0.00 | 0.00 | 58 | 1010.2 |
| 20260502221100 | 7 | 324 | 9.7 | 16.1 | 0.00 | 0.00 | 0.00 | 58 | 1010.1 |
| 20260502220555 | 7 | 57 | 9.7 | 12.9 | 0.00 | 0.00 | 0.00 | 57 | 1009.9 |
| 20260502220052 | 7 | 349 | 3.2 | 9.7 | 0.00 | 0.00 | 0.00 | 55 | 1010.2 |
| 20260502215549 | 7 | 302 | 3.2 | 11.3 | 0.00 | 0.00 | 0.00 | 54 | 1010.1 |
| 20260502215046 | 7 | 301 | 4.8 | 12.9 | 0.00 | 0.00 | 0.00 | 56 | 1010.1 |
| 20260502214543 | 7 | 296 | 6.4 | 11.3 | 0.00 | 0.00 | 0.00 | 56 | 1010.1 |
| 20260502214041 | 7 | 293 | 9.7 | 14.5 | 0.00 | 0.00 | 0.00 | 55 | 1009.9 |
| 20260502213537 | 7 | 289 | 6.4 | 11.3 | 0.00 | 0.00 | 0.00 | 56 | 1009.9 |
| 20260502213035 | 7 | 342 | 6.4 | 12.9 | 0.00 | 0.00 | 0.00 | 57 | 1009.9 |
| 20260502212534 | 7 | 314 | 8.0 | 12.9 | 0.00 | 0.00 | 0.00 | 56 | 1009.9 |
| 20260502212031 | 7 | 293 | 4.8 | 16.1 | 0.00 | 0.00 | 0.00 | 55 | 1009.8 |
| 20260502211526 | 7 | 309 | 8.0 | 14.5 | 0.00 | 0.00 | 0.00 | 57 | 1009.8 |
| 20260502211024 | 7 | 296 | 6.4 | 14.5 | 0.00 | 0.00 | 0.00 | 60 | 1009.7 |
| 20260502210521 | 7 | 318 | 4.8 | 14.5 | 0.00 | 0.00 | 0.00 | 56 | 1009.7 |
| 20260502210018 | 7 | 338 | 9.7 | 12.9 | 0.00 | 0.00 | 0.00 | 56 | 1009.7 |
| 20260502205514 | 8 | 303 | 4.8 | 6.4 | 0.00 | 0.00 | 0.00 | 57 | 1009.7 |
| 20260502205011 | 7 | 290 | 3.2 | 9.7 | 0.00 | 0.00 | 0.00 | 57 | 1009.8 |
| 20260502204508 | 7 | 327 | 6.4 | 12.9 | 0.00 | 0.00 | 0.00 | 54 | 1009.8 |
| 20260502204006 | 8 | 246 | 4.8 | 9.7 | 0.00 | 0.00 | 0.00 | 54 | 1009.6 |
| 20260502203503 | 8 | 278 | 3.2 | 6.4 | 0.00 | 0.00 | 0.00 | 55 | 1009.6 |
| 20260502202959 | 8 | 310 | 6.4 | 9.7 | 0.00 | 0.00 | 0.00 | 53 | 1010.1 |
| 20260502202456 | 8 | 327 | 6.4 | 6.4 | 0.00 | 0.00 | 0.00 | 53 | 1009.9 |
| 20260502201954 | 7 | 81 | 1.6 | 11.3 | 0.00 | 0.00 | 0.00 | 54 | 1010.2 |
| 20260502201450 | 8 | 308 | 6.4 | 9.7 | 0.00 | 0.00 | 0.00 | 53 | 1010.1 |
| 20260502200947 | 8 | 319 | 6.4 | 12.9 | 0.00 | 0.00 | 0.00 | 55 | 1009.9 |
| 20260502200442 | 8 | 327 | 6.4 | 16.1 | 0.00 | 0.00 | 0.00 | 53 | 1009.9 |
| 20260502195940 | 8 | 297 | 6.4 | 12.9 | 0.00 | 0.00 | 0.00 | 58 | 1009.8 |
| 20260502195437 | 8 | 307 | 4.8 | 12.9 | 0.00 | 0.00 | 0.00 | 55 | 1010.1 |
| 20260502194933 | 8 | 311 | 11.3 | 12.9 | 0.00 | 0.00 | 0.00 | 53 | 1009.9 |
| 20260502194431 | 7 | 352 | 3.2 | 11.3 | 0.00 | 0.00 | 0.00 | 54 | 1010.2 |
| 20260502193926 | 7 | 298 | 14.5 | 16.1 | 0.00 | 0.00 | 0.00 | 56 | 1010.1 |
| 20260502193424 | 8 | 1 | 4.8 | 9.7 | 0.00 | 0.00 | 0.00 | 55 | 1010.2 |
| 20260502192919 | 8 | 320 | 6.4 | 14.5 | 0.00 | 0.00 | 0.00 | 54 | 1010.3 |
| 20260502192416 | 8 | 313 | 11.3 | 14.5 | 0.00 | 0.00 | 0.00 | 55 | 1010.4 |
| 20260502191913 | 8 | 300 | 6.4 | 9.7 | 0.00 | 0.00 | 0.00 | 57 | 1010.3 |
| 20260502191411 | 8 | 325 | 3.2 | 9.7 | 0.00 | 0.00 | 0.00 | 55 | 1010.3 |
| 20260502190909 | 8 | 67 | 8.0 | 16.1 | 0.00 | 0.00 | 0.00 | 52 | 1010.4 |
| 20260502190406 | 8 | 335 | 4.8 | 16.1 | 0.00 | 0.00 | 0.00 | 59 | 1010.5 |
| 20260502185901 | 8 | 63 | 0.0 | 4.8 | 0.00 | 0.00 | 0.00 | 55 | 1010.3 |
| 20260502185357 | 8 | 231 | 6.4 | 14.5 | 0.00 | 0.00 | 0.00 | 52 | 1010.5 |
| 20260502184854 | 8 | 15 | 3.2 | 12.9 | 0.00 | 0.00 | 0.00 | 56 | 1010.3 |
| 20260502184350 | 8 | 331 | 9.7 | 12.9 | 0.00 | 0.00 | 0.00 | 57 | 1010.6 |
| 20260502183847 | 8 | 304 | 6.4 | 11.3 | 0.00 | 0.00 | 0.00 | 56 | 1010.6 |
| 20260502183343 | 8 | 202 | 6.4 | 11.3 | 0.00 | 0.00 | 0.00 | 52 | 1010.5 |
| 20260502182838 | 8 | 287 | 8.0 | 16.1 | 0.00 | 0.00 | 0.00 | 51 | 1010.4 |
| 20260502182333 | 8 | 17 | 3.2 | 9.7 | 0.00 | 0.00 | 0.00 | 48 | 1010.4 |
| 20260502181830 | 8 | 9 | 1.6 | 9.7 | 0.00 | 0.00 | 0.00 | 50 | 1010.6 |
| 20260502181329 | 8 | 286 | 3.2 | 11.3 | 0.00 | 0.00 | 0.00 | 51 | 1010.7 |
| 20260502180827 | 8 | 322 | 9.7 | 12.9 | 0.00 | 0.00 | 0.00 | 50 | 1010.7 |
| 20260502180324 | 8 | 330 | 6.4 | 11.3 | 0.00 | 0.00 | 0.00 | 54 | 1010.8 |